Midland, MI

5:51 AM EDT on May 25, 2017 (GMT -0400)
Barstow

Weather History for KIKW - May, 2014

Change the Weather History Date:

Sunday, May 11, 2014

  Actual Average (KMBS) Record (KMBS)
Temperature  
Mean Temperature 60 °F -  
Max Temperature 80 °F 64 °F 80 °F (2014)
Min Temperature 40 °F 44 °F 36 °F (1997)
Degree Days  
Heating Degree Days 5    
Growing Degree Days 10 (Base 50)    
Moisture  
Dew Point 41 °F    
Average Humidity 52    
Maximum Humidity 89    
Minimum Humidity 24    
Precipitation  
Precipitation 0.00 in - - ()
Sea Level Pressure  
Sea Level Pressure 29.99 in    
Wind  
Wind Speed 2 mph (SSE)    
Max Wind Speed 12 mph    
Max Gust Speed 20 mph    
Visibility 10 miles    
Events      
Averages and records for this station are not official NWS values.
T = Trace of Precipitation, MM = Missing Value Source: NWS Daily Summary

Daily Weather History Graph

Daily Weather History Graph

Search for Another Location

Airport or City:

Trip Planner

Search our weather history database for the weather conditions in past years. The results will help you decide how hot, cold, wet, or windy it might be!

Date:

Astronomy

May. 11, 2014 Rise Set
Actual Time 6:16 AM EDT 8:51 PM EDT
Civil Twilight 5:43 AM EDT 9:23 PM EDT
Nautical Twilight 5:02 AM EDT 10:04 PM EDT
Astronomical Twilight 4:16 AM EDT 10:51 PM EDT
Moon 5:40 PM EDT (5/11) 4:27 AM EDT (5/11)
Length of Visible Light 15h 40m
Length of Day
14h 34m
Waxing Gibbous, 89% of the Moon is Illuminated
May 11
Waxing Gibbous
May 14
Full
May 21
Last Quarter
May 28
New
Jun 5
First Quarter

Hourly Weather History & Observations

Time (EDT) Temp. Dew Point Humidity Pressure Visibility Wind Dir Wind Speed Gust Speed Precip Events Conditions
12:12 AM 46.9 °F 37.2 °F 69% 29.97 in 10.0 mi Calm Calm - N/A   Clear
12:33 AM 47.7 °F 39.6 °F 73% 29.99 in 10.0 mi Calm Calm - N/A   Clear
12:52 AM 45.0 °F 35.8 °F 70% 29.99 in 10.0 mi Calm Calm - N/A   Clear
1:12 AM 44.1 °F 37.0 °F 76% 30.00 in 10.0 mi Calm Calm - N/A   Clear
1:33 AM 45.1 °F 36.1 °F 71% 30.00 in 10.0 mi Calm Calm - N/A   Clear
1:52 AM 44.1 °F 36.7 °F 75% 30.00 in 10.0 mi Calm Calm - N/A   Clear
2:12 AM 43.2 °F 36.0 °F 76% 30.00 in 10.0 mi Calm Calm - N/A   Clear
2:32 AM 42.8 °F 35.6 °F 76% 30.00 in 10.0 mi Calm Calm - N/A   Clear
2:52 AM 43.0 °F 35.8 °F 76% 30.00 in 10.0 mi Calm Calm - N/A   Clear
3:13 AM 41.0 °F 36.0 °F 82% 29.99 in 10.0 mi Calm Calm - N/A   Clear
3:32 AM 42.1 °F 35.8 °F 78% 30.00 in 10.0 mi Calm Calm - N/A   Clear
3:52 AM 41.2 °F 37.4 °F 86% 30.01 in 10.0 mi Calm Calm - N/A   Scattered Clouds
4:13 AM 42.8 °F 37.6 °F 82% 30.01 in 10.0 mi Calm Calm - N/A   Mostly Cloudy
4:32 AM 43.0 °F 36.9 °F 79% 30.02 in 10.0 mi Calm Calm - N/A   Mostly Cloudy
4:52 AM 43.2 °F 36.9 °F 78% 30.02 in 10.0 mi Calm Calm - N/A   Scattered Clouds
5:13 AM 42.8 °F 37.2 °F 81% 30.02 in 10.0 mi Calm Calm - N/A   Clear
5:32 AM 40.8 °F 36.1 °F 83% 30.02 in 10.0 mi Calm Calm - N/A   Clear
5:53 AM 41.4 °F 37.8 °F 87% 30.02 in 10.0 mi Calm Calm - N/A   Clear
6:12 AM 41.5 °F 38.1 °F 88% 30.02 in 10.0 mi Calm Calm - N/A   Mostly Cloudy
6:32 AM 42.6 °F 37.8 °F 83% 30.02 in 10.0 mi Calm Calm - N/A   Mostly Cloudy
6:53 AM 41.9 °F 37.9 °F 86% 30.03 in 10.0 mi Calm Calm - N/A   Scattered Clouds
7:12 AM 42.8 °F 39.7 °F 89% 30.03 in 10.0 mi Calm Calm - N/A   Clear
7:32 AM 46.6 °F 41.9 °F 84% 30.04 in 10.0 mi Calm Calm - N/A   Clear
7:52 AM 49.3 °F 40.6 °F 72% 30.04 in 10.0 mi Calm Calm - N/A   Clear
8:12 AM 52.7 °F 42.1 °F 67% 30.04 in 10.0 mi SSW 3.5 mph - N/A   Clear
8:33 AM 54.7 °F 41.2 °F 60% 30.04 in 10.0 mi Calm Calm - N/A   Clear
8:52 AM 57.0 °F 40.3 °F 54% 30.04 in 10.0 mi Calm Calm - N/A   Clear
9:12 AM 58.1 °F 39.0 °F 49% 30.04 in 10.0 mi SSW 5.8 mph - N/A   Clear
9:33 AM 61.3 °F 38.7 °F 43% 30.04 in 10.0 mi South 5.8 mph - N/A   Clear
9:52 AM 63.1 °F 38.7 °F 40% 30.05 in 10.0 mi SSW 6.9 mph - N/A   Mostly Cloudy
10:12 AM 63.1 °F 39.0 °F 41% 30.04 in 10.0 mi South 5.8 mph - N/A   Mostly Cloudy
10:33 AM 65.5 °F 37.9 °F 36% 30.04 in 7.0 mi South 5.8 mph - N/A   Scattered Clouds
10:52 AM 66.4 °F 37.6 °F 35% 30.04 in 7.0 mi Calm Calm - N/A   Scattered Clouds
11:12 AM 68.2 °F 38.3 °F 33% 30.04 in 10.0 mi South 5.8 mph - N/A   Clear
11:32 AM 69.8 °F 37.9 °F 31% 30.04 in 10.0 mi SSW 4.6 mph - N/A   Clear
11:52 AM 70.7 °F 38.7 °F 31% 30.03 in 10.0 mi SSE 4.6 mph - N/A   Clear
12:13 PM 72.1 °F 39.6 °F 31% 30.03 in 10.0 mi Calm Calm - N/A   Scattered Clouds
12:32 PM 72.7 °F 40.3 °F 31% 30.02 in 10.0 mi SE 5.8 mph - N/A   Clear
12:52 PM 73.9 °F 40.8 °F 30% 30.01 in 10.0 mi SSW 6.9 mph - N/A   Clear
1:13 PM 75.0 °F 40.1 °F 28% 30.01 in 7.0 mi South 4.6 mph - N/A   Mostly Cloudy
1:32 PM 75.9 °F 39.6 °F 27% 30.00 in 7.0 mi SSW 6.9 mph - N/A   Overcast
1:52 PM 75.6 °F 39.7 °F 28% 29.99 in 10.0 mi SE 8.1 mph - N/A   Overcast
2:13 PM 77.2 °F 40.8 °F 27% 29.99 in 10.0 mi SE 5.8 mph - N/A   Overcast
2:32 PM 77.5 °F 39.7 °F 26% 29.98 in 7.0 mi South 4.6 mph - N/A   Overcast
2:52 PM 77.7 °F 40.8 °F 27% 29.97 in 7.0 mi South 5.8 mph 9.2 mph N/A   Scattered Clouds
3:13 PM 78.3 °F 38.8 °F 24% 29.97 in 10.0 mi SSE 10.4 mph 16.1 mph N/A   Clear
3:32 PM 79.7 °F 41.2 °F 25% 29.97 in 7.0 mi South 5.8 mph - N/A   Scattered Clouds
3:52 PM 79.0 °F 40.6 °F 25% 29.97 in 10.0 mi SSE 6.9 mph - N/A   Scattered Clouds
4:12 PM 80.6 °F 40.6 °F 24% 29.97 in 7.0 mi South 6.9 mph - N/A   Scattered Clouds
4:32 PM 79.9 °F 40.8 °F 25% 29.96 in 10.0 mi SSW 11.5 mph - N/A   Mostly Cloudy
4:52 PM 80.6 °F 42.1 °F 25% 29.95 in 10.0 mi SSE 4.6 mph - N/A   Scattered Clouds
5:12 PM 79.7 °F 41.0 °F 25% 29.95 in 10.0 mi Calm Calm - N/A   Clear
5:32 PM 80.2 °F 42.3 °F 26% 29.95 in 10.0 mi South 5.8 mph 19.6 mph N/A   Clear
5:52 PM 79.7 °F 42.8 °F 27% 29.95 in 7.0 mi South 6.9 mph - N/A   Clear
6:12 PM 79.2 °F 43.0 °F 28% 29.94 in 7.0 mi SE 5.8 mph - N/A   Clear
6:32 PM 79.5 °F 44.2 °F 29% 29.94 in 10.0 mi SSE 4.6 mph - N/A   Clear
6:52 PM 78.1 °F 44.1 °F 30% 29.93 in 10.0 mi East 6.9 mph - N/A   Clear
7:12 PM 75.6 °F 45.1 °F 34% 29.93 in 10.0 mi ENE 9.2 mph - N/A   Clear
7:32 PM 74.7 °F 46.2 °F 36% 29.92 in 7.0 mi East 5.8 mph - N/A   Clear
7:52 PM 73.6 °F 45.9 °F 37% 29.92 in 10.0 mi ESE 5.8 mph - N/A   Clear
8:12 PM 71.4 °F 46.2 °F 41% 29.92 in 10.0 mi East 4.6 mph - N/A   Clear
8:33 PM 70.2 °F 47.3 °F 44% 29.92 in 10.0 mi East 3.5 mph - N/A   Clear
8:52 PM 70.2 °F 47.1 °F 44% 29.92 in 10.0 mi ENE 3.5 mph - N/A   Clear
9:12 PM 66.7 °F 48.6 °F 52% 29.92 in 10.0 mi ENE 3.5 mph - N/A   Clear
9:33 PM 65.3 °F 49.6 °F 57% 29.94 in 10.0 mi East 4.6 mph - N/A   Clear
9:52 PM 66.2 °F 49.8 °F 55% 29.95 in 10.0 mi ENE 5.8 mph - N/A   Clear
10:12 PM 66.7 °F 48.9 °F 53% 29.95 in 10.0 mi ENE 5.8 mph - N/A   Scattered Clouds
10:32 PM 64.6 °F 49.1 °F 57% 29.95 in 10.0 mi East 5.8 mph - N/A   Scattered Clouds
10:52 PM 63.1 °F 49.3 °F 61% 29.95 in 10.0 mi ENE 5.8 mph - N/A   Clear
11:13 PM 64.6 °F 49.1 °F 57% 29.95 in 10.0 mi Calm Calm - N/A   Clear
11:32 PM 64.2 °F 50.4 °F 61% 29.95 in 10.0 mi Calm Calm - N/A   Clear
11:52 PM 70.2 °F 52.2 °F 53% 29.94 in 10.0 mi SSE 5.8 mph - N/A   Clear